Regional Weather Roundup
Issued by NWS Newport/Morehead, NC

Current Version | Previous Version | Graphics & Text | Print | Product List | Glossary Off
Versions: 1 2 3 4 5 6 7 8 9 10 11 12 13 14 15 16 17 18 19 20 21 22 23 24 25 26 27 28 29 30 31 32 33 34 35 36 37 38 39 40 41 42 43 44 45 46 47 48 49 50

780
ASUS42 KMHX 231925
RWRMHX
WEATHER ROUNDUP FOR EASTERN NORTH CAROLINA
NATIONAL WEATHER SERVICE NEWPORT/MOREHEAD CITY NC
300 PM EDT MON MAY 23 2016

NOTE: "FAIR" INDICATES FEW OR NO CLOUDS BELOW 12,000 FEET
WITH NO SIGNIFICANT WEATHER AND/OR OBSTRUCTIONS TO VISIBILITY

NCZ015>017-031-032-045>047-102-103-232000-
NORTH COAST

CITY           SKY/WX    TMP DP  RH WIND       PRES   REMARKS
EDENTON        CLOUDY   N/A N/A N/A NE6       29.92S
ELIZABETH CITY MOSUNNY   66  50  56 NE18      29.91S
KITTY HAWK     CLOUDY    60  56  85 N9G18     29.88S
MANTEO         CLOUDY    61  58  88 NE15      29.89F

$$

NCZ045>047-081-094-103-104-232000-
CENTRAL COAST

CITY           SKY/WX    TMP DP  RH WIND       PRES   REMARKS
FRISCO         PTSUNNY   66  54  65 NW8       29.88S

$$

NCZ095-097-098-100-101-232000-
SOUTHERN COAST

CITY           SKY/WX    TMP DP  RH WIND       PRES   REMARKS
BEAUFORT       PTSUNNY   67  57  70 NW15      29.90F
CEDAR ISLAND   NOT AVBL
JACKSONVILLE   CLOUDY    68  55  63 NW13      29.91F
PINEY ISLAND   PTCLDY   N/A N/A N/A W16G23    29.89F
WILMINGTON     CLOUDY    69  54  58 NW13      29.94S


$$

NCZ011>013-027>030-043-044-078>080-089-090>093-098-232000-
COASTAL PLAIN

CITY           SKY/WX    TMP DP  RH WIND       PRES   REMARKS
AHOSKIE        PTSUNNY   61  56  84 CALM      29.94S
CLINTON        PTSUNNY   65  57  76 N10       29.96R
ELIZABETHTOWN  PTSUNNY   70  52  53 NW8       29.95F
GOLDSBORO      PTSUNNY   70  59  68 NW8       29.92S
GREENVILLE     CLOUDY    66  55  68 N9        29.95S
HAVELOCK       LGT RAIN  66  59  78 NW13      29.92F
KENANSVILLE    PTSUNNY   65  58  78 N10       29.96R
KINSTON        PTSUNNY   64  59  82 NW7       29.94S
NEW BERN       LGT RAIN  63  60  90 NW8       29.94S
RICHLANDS      LGT RAIN  64  60  87 VRB6      29.94R
ROCKY MOUNT    CLOUDY    63  55  75 NW16      29.95S
WASHINGTON     MOSUNNY   65  57  73 N8        29.92S
WHITEVILLE     CLOUDY    68  53  57 CALM      29.95F

$$

AMZ130-135-150-152-154-156-158-170-250-252-270-ANZ085-086-088-633-658-670-232000-
MARINE OBSERVATIONS

STATION/POSITION TIME  TEMP    WIND        PRES    WAVE   SWELL
                       AIR SEA DIR/SP/G            HT/PER HT/PER
                 (UTC) (F)     (DEG/KT/KT) (MB)    (FT/S) (FT/S)
CHESAPEAKE LIGHT 1900   58      10/ 20/ 22 1012.8
64 E VA BEACH    1850   56 60  350/ 16/ 19 1010.8    7/ 9   5/ 9
DUCK             1900   58 62   10/ 15/ 18 1011.4
2 E DUCK         1811      62                N/A     5/ 5   2/11
OREGON INLET     1900   59 64  350/ 11/ 16 1011.6
13E OREGON INLT  1800      63                N/A     3/ 8   3/ 8
HATTERAS CG      1900   64 67  270/ 10/ 13 1011.3
DIAMOND BUOY     1850   62 66  290/ 12/ 16 1011.9    3/ 8   2/ 8
CAPE LOOKOUT     1900   65     300/ 12/ 13 1012.1
BEAUFORT LAB     1900   65 68  300/ 11/ 17 1011.8
30 SE NEW RVR IN 1825      73                N/A     3/ 9
27 SE WRIGHTSVLE 1908   68 73  320/ 12/ 16 1013.5
5 SE WRIGHTSVLE  1808   68 72  320/ 14/ 19 1014.1
225 S CAPE HAT   1850   73 77  320/ 10/ 14 1013.2    5/ 6   3/ 6
41 SE CHARLESTON 1850   70 75  330/  8/ 10 1014.5    3/ 9   2/ 9

$$




USA.gov is the U.S. government's official web portal to all federal, state and local government web resources and services.